Find Starlink 11101

NORAD ID: 59715 Int'l Des: 2024-088 Owner: SPXS Country: US Constellation: starlink operational
LEOCIRCULAR

Current View

Loading 3D Globe...

About Starlink 11101

Starlink 11101 (NORAD 59715) is a starlink constellation satellite (v2 mini d2c) launched May 10, 2024 by SPXS of US. It operates in LEO, CIRCULAR orbit with a mass of 960.00 kg.

About Starlink 11101

Description loading...

Upcoming Passes

Passes for default location (London). Set your location on the main map for personalized predictions.

Altitude History

Loading altitude history...

Two-Line Element Set

1 59715U 24088H 26171.26215253 -.00002456 00000-0 -15427-4 0 9994
2 59715 53.1597 180.5324 0001230 68.4366 291.6783 15.69691612122389
Epoch: Jun 20, 2026 • Age: 6 hours

Current Status

Altitude 360.4 km
Velocity 7.69 km/s
Sub-Earth Point -0.01°S, 84.48°E
Launch Date May 10, 2024
Age 2.1 years
Type internet

Technical Details

Classification Payload
Mass 960.00 kg
Dry Mass 910.00 kg
Total Mass 960.00 kg
Length 0.30 m
Diameter 4.10 m
Span 29.00 m
Shape Box + pan
Manufacturer SPXS
Bus Type Starlink V2MD
Phase Status In Orbit
Owner/State SPXS/US

Most Searched